Miscellaneous Local Product
Issued by NWS Hastings, NE

Home | Current Version | Previous Version | Text Only | Print | Product List | Glossary Off
Versions: 1 2 3 4 5 6 7 8 9 10 11 12 13 14 15 16 17 18 19 20 21 22 23 24 25 26 27 28 29 30 31 32 33 34 35 36 37 38 39 40 41 42 43 44 45 46 47 48 49 50

000
AXUS43 KGID 292102
MISGRI

GID CWA HOURLY WEATHER ROUNDUP
NATIONAL WEATHER SERVICE HASTINGS NE
400 PM CDT TUE JUL 29 2014

NOTE: "FAIR" INDICATES FEW OR NO CLOUDS BELOW 12,000 FEET WITH NO
SIGNIFICANT WEATHER AND/OR OBSTRUCTIONS TO VISIBILITY.

...SOUTH CENTRAL NEBRASKA...

CITY           SKY/WX    TMP DP  RH WIND       PRES   REMARKS
GRAND ISLAND   SUNNY     77  58  51 E5        30.18F
HASTINGS       SUNNY     78  56  46 NE10      30.17F
KEARNEY        SUNNY     81  57  44 E9        30.18F
ORD            PTSUNNY   77  57  50 CALM      30.17F
YORK           MOSUNNY   77  57  50 NE7       30.18F
AURORA         PTSUNNY   77  58  51 NE7       30.18F
LEXINGTON      SUNNY     81  61  50 E12       30.17F
HOLDREGE       SUNNY     80  57  45 E10       30.16F
HEBRON         MOSUNNY   80  53  39 NE5       30.16F

...NEBRASKA PANHANDLE...

CITY           SKY/WX    TMP DP  RH WIND       PRES   REMARKS
CHADRON        PTSUNNY   75  58  55 NE17      30.21F
ALLIANCE       PTSUNNY   80  56  43 E14       30.19F
SCOTTSBLUFF    MOSUNNY   84  60  44 SE6       30.17F
SIDNEY         PTSUNNY   83  56  39 SE12G22   30.19F

...WESTERN AND NORTH CENTRAL NEBRASKA...

CITY           SKY/WX    TMP DP  RH WIND       PRES   REMARKS
VALENTINE      CLOUDY    76  52  43 N7        30.21F
AINSWORTH      CLOUDY    74  55  51 NE7       30.21F
ONEILL         CLOUDY    77  49  36 W3        30.19F
BROKEN BOW     PTSUNNY   79  58  48 CALM      30.18F
IMPERIAL       MOSUNNY   83  59  44 E10       30.15F
NORTH PLATTE   SUNNY     82  58  43 E10G20    30.16F
MCCOOK         MOSUNNY   85  59  41 E13G18    30.13F

...EASTERN NEBRASKA...

CITY           SKY/WX    TMP DP  RH WIND       PRES   REMARKS
NORFOLK        PTSUNNY   78  53  41 N10       30.18F
SO SIOUX CITY  MOSUNNY   79  54  41 N8        30.16F
TEKAMAH        PTSUNNY   78  54  43 N7        30.16F
ALBION         PTSUNNY   74  54  49 E5        30.19F
OMAHA EPPLEY   PTSUNNY   79  52  38 NW10      30.15F
OFFUTT AFB     MOSUNNY   77  55  45 N1        30.15F
MILLARD        PTSUNNY   77  56  47 NW5       30.16S
LINCOLN        MOSUNNY   82  51  34 MISG      30.17F
NEBRASKA CITY  PTSUNNY   79  53  40 N6        30.15F
BEATRICE       MOSUNNY   79  57  46 NE3       30.15F
FALLS CITY     MOSUNNY   80  57  45 N8        30.14F

...NORTHERN KANSAS...

CITY           SKY/WX    TMP DP  RH WIND       PRES   REMARKS
GOODLAND       MOSUNNY   85  59  41 SE14      30.14F
HILL CITY      MOSUNNY   88  56  33 MISG      30.11F
NORTON         MOCLDY    88  52  29 E10G16    30.12F
PHILLIPSBURG   SUNNY     86  54  32 E13       30.13F
SMITH CENTER   SUNNY     82  55  39 E8        30.14F
HAYS           MOSUNNY   88  57  35 E5        30.11F
RUSSELL        MOSUNNY   87  58  37 SE8       30.10F
CONCORDIA      MOSUNNY   80  58  46 NE9       30.15F
SALINA         MOSUNNY   84  58  40 E13       30.13F
TOPEKA         MOSUNNY   85  57  38 VRB5      30.13F



USA.gov is the U.S. government's official web portal to all federal, state and local government web resources and services.